Погода в Овгорте

Россия / Ямало-Ненецкий автономный округ     64°49′43″N   63°58′17″E
темп.,
°C
ветер,
м/с
пор.,
м/с
влажн.,
%
обл.,
%
осадки,
мм/ч
давл.,
гПа
погр.,
м
16 июня, ср
ср1623:00+12ссз46540 0.0 101081
02:00+9ссз33600 0.0 101114
05:00+11зсз12595 0.0 101248
08:00+14ю1141100 0.0 1011450
11:00+18ююз3437100 0.0 10101132
14:00+22ююз573268 0.0 10081637
17:00+24юз57280 0.0 10052024
20:00+23ююв583814 0.0 1003311
17 июня, чт
чт1723:00+19ю6104964 0.0 1001204
02:00+18ю51250100 0.0 999290
05:00+18ююз61369100 0.1 996510
08:00+8ссз91588100 7.2 1001650
11:00+5ссз101980100 7.4 1005724
14:00+12ссз1114489 0.0 10081554
17:00+12ссз10134254 0.0 10091780
20:00+12с812445 0.0 10111891
18 июня, пт
пт1823:00+7с335714 0.0 101316
02:00+6зсз33605 0.0 101315
05:00+8сз59675 0.0 1015480
08:00+11сз710435 0.0 10151867
11:00+13сз8103798 0.0 10142345
14:00+14сз693859 0.0 10142170
17:00+15сз583459 0.0 10132349
20:00+15ссз113898 0.0 10121285
19 июня, сб
сб1923:00+10ююв1154100 0.0 101211
02:00+8ссв348057 0.0 101341
05:00+10сз126974 0.0 1014126
08:00+14сз45509 0.0 10141154
11:00+16зюз1241100 0.0 10131950
14:00+19юз453498 0.0 10112371
17:00+19юз4732100 0.0 10092340
20:00+15зюз71157100 0.0 1007524
20 июня, вс
вс2023:00+13юз7138121 0.1 1005561
02:00+11зюз6139465 0.0 1005362
05:00+12сз1116748 0.1 10071045
08:00+12ссз12156381 0.0 10121229
11:00+14ссз111345100 0.0 10151451
14:00+15ссз1011395 0.0 10161602
17:00+16ссз893876 0.0 10171752
20:00+15ссз5746100 0.0 10181377